Location: Jerusalem
(31.7667°N, 35.2333°E)
Time: 00:53:06
(UTC+03:00)

ISS - Visible Passes

Search period start: 26 May 2017 00:00
Search period end: 05 June 2017 00:00
Orbit: 402 x 408 km, 51.6° (Epoch: 26 May)

Date Brightness Start Highest point End Pass type
(mag) Time Alt. Az. Time Alt. Az. Time Alt. Az.
26 May -0.4 02:58:53 10° N 03:00:31 13° NNE 03:02:09 10° ENE visible
26 May -3.8 04:34:03 10° NW 04:37:16 55° SW 04:40:26 10° SSE visible
26 May -0.5 21:11:51 10° WNW 21:13:50 15° NW 21:15:50 10° N visible
27 May -3.4 03:41:59 10° NW 03:45:14 61° NE 03:48:27 10° SE visible
27 May -1.3 20:18:47 10° W 20:21:37 26° NW 20:24:28 10° NNE visible
29 May -0.4 20:12:43 10° WNW 20:14:11 12° NNW 20:15:38 10° N visible
